Skip Page Navigation
NASA JPL Caltech
NASA Logo - Jet Propulsion Laboratory + View the NASA Portal
+ Center for Near-Earth Object Studies
JPL Home Earth Solar System Stars & Galaxies Technology
JPL Solar System Dynamics
BODIES ORBITS EPHEMERIDES TOOLS PHYSICAL DATA DISCOVERY FAQ SITE MAP
JPL Small-Body Database Browser
Search: [ help ]  
24260 Krivan (1999 XW127)
Classification: Main-belt Asteroid          SPK-ID: 2024260
Ephemeris | Orbit Diagram | Orbital Elements | Mission Design | Physical Parameters | Discovery Circumstances ]

[ hide orbit diagram ]

For accurate long-term ephemerides, please instead use our Horizons system.This orbit viewer was implemented using two-body methods, and hence should not be used for determining accurate long-term trajectories (over several years or decades) or planetary encounter circumstances.


Orbital Elements at Epoch 2459200.5 (2020-Dec-17.0) TDB
Reference: JPL 33 (heliocentric ecliptic J2000)
 Element Value Uncertainty (1-sigma)   Units 
e .1313859065075164 1.6834e-08  
a 2.596702975304365 8.5964e-09 au
q 2.255532800963236 4.3436e-08 au
i 14.27917857781215 1.2219e-06 deg
node 43.04215063362557 3.5142e-06 deg
peri 31.29622263260772 6.377e-06 deg
M 42.71866372414387 5.5112e-06 deg
tp 2459019.137706770910
(2020-Jun-18.63770677)
2.3215e-05 TDB
period 1528.381739281121
4.18
7.5896e-06
2.078e-08
d
yr
n .2355432486188478 1.1697e-09 deg/d
Q 2.937873149645494 9.7259e-09 au
  Orbit Determination Parameters
   # obs. used (total)      2633  
   data-arc span      16343 days (44.74 yr)  
   first obs. used      1976-06-24  
   last obs. used      2021-03-23  
   planetary ephem.      DE441  
   SB-pert. ephem.      SB441-N16  
   condition code      0  
   norm. resid. RMS      .35866  
   source      ORB  
   producer      Otto Matic  
   solution date      2021-May-04 03:32:26  

Additional Information
 Earth MOID = 1.27943 au 
 Jupiter MOID = 2.4389 au 
 T_jup = 3.361 
[ show covariance matrix ]

Ephemeris | Orbit Diagram | Orbital Elements | Mission Design | Physical Parameters | Discovery Circumstances ]

Physical Parameter Table
Parameter Symbol Value Units Sigma Reference Notes
absolute magnitude H 12.76   n/a MPCxxxxx  
diameter diameter 8.320 km 0.189 urn:nasa:pds:neowise_diameters_albedos::2.0[mainbelt] (http://adsabs.harvard.edu/abs/2011ApJ...741...68M)  
rotation period rot_per 3.318 h n/a LCDB (Rev. 2020-October); Warner et al., 2009 Published Reference List:
[Brinsfield, J.W. (2012) Minor Planet Bull. 39, 55-57.]
geometric albedo albedo 0.280   0.041 urn:nasa:pds:neowise_diameters_albedos::2.0[mainbelt] (http://adsabs.harvard.edu/abs/2011ApJ...741...68M)  

24260 Kriváň           Discovered 1999 Dec. 13 by P. Kušnirák at Ondřejov.
At 2494 meters, Kriváň is the most beautiful Slovak peak and one of the national symbols of Slovakia.
NOTE: some special characters may not display properly (any characters within {} are an attempt to place the proper accent above a character)
Reference: 20010804/MPCPages.arcLast Updated: 2009-05-11

Alternate Designations
 1999 XW127 = 1982 YG1 
Ephemeris | Orbit Diagram | Orbital Elements | Mission Design | Physical Parameters | Discovery Circumstances ]
ABOUT SSD CREDITS/AWARDS PRIVACY/COPYRIGHT GLOSSARY LINKS
FirstGov 2021-Jun-14 16:33 UT
(server date/time)  
NASA Home Page
Site Manager:   Ryan S. Park
Webmaster  Alan B. Chamberlin